THOR ABLESTAR DEB, 230

Orbit data source: Space-Track

THOR ABLESTAR DEB, 230 is space debris in LEO originally from a launch on Thu, 29 Jun 1961 UTC launched from the Air Force Eastern Test Range (AFETR). Debris objects in space refer to the collection of defunct objects orbiting the Earth. Examples of debris include non-operational satellites, rocket bodies, and fragments generated from explosions, collisions, or faulty payload assembly.

Loading next visibility...
THOR ABLESTAR DEB details
Identifier
230, 1961-015BN
Orbit
LEO
Last TLE update4 hours ago
Origin
Flag of USUSAF SSD (US)
ManufacturerUnknown
MissionSpacecraft
Bus & MotorUnknown
MassUnknown
Launch date (UTC)
1961-06-29 (64 years ago)
Launch vehicleUnknown
Launch site
Air Force Eastern Test Range (AFETR)
Object type
Payload
Rocket body
Debris
Shape & HBRUnknown
Radar Cross SectionSmall (<0.1 m²)

Expand to show TLE details & history

TLE from 4 hours ago
0 THOR ABLESTAR DEB
1   230U 61015BN  25036.52716086  .00000337  00000-0  28778-3 0  9997
2   230  66.8825 189.7084 0092526 175.0982 185.1029 13.96631182236899
Epoch: 2025-02-05T12:39Z
Definitive object data (Epoch: 2025-02-05T12:39:06.698Z)
Latitude-0.00003°
Longitude-135.98634°
Altitude974.71 km
Speed7.331 km/s
True Right ascension12h 38m 50s
True Declination0° 00' 00"
Sunlit
Object was in full shadow at TLE epoch
Visualization TLE readout
Latitude4.67272°
Longitude41.58749°
Altitude839.687 km
Speed7.468 km/s
Apparent Right ascension02h 55m 19s
Apparent Declination-23° 08' 48"
Sunlit
Object is in daylight
Visualization observer readout
Local Sidereal Time18:59:16
Azimuth91.093° ESE
Elevation-36.46°
Doppler factor1
Orbital elements
Apogee altitude971.241 km
Perigee altitude836.486 km
Semi-major axis7,282.001 km
Eccentricity0.0092526
Inclination66.8825°
RAAN189.7084°
Arg. of periapsis175.0982°
True anomaly185.00967°
Mean anomaly185.1029°
Eccentric anomaly185.05618°
Mean motion3.49275 °/min
BSTAR0.00028778
Orbital period103.07 mins
Loading maneuver chart data...

THOR ABLESTAR DEB Visibility forecast

Observer location: undefined°, undefined

Span
Click to sort rows by Start time (UTC) header in descending order
Start Az.
Max El. time (UTC)
Max El. Az.
Max El.
End time (UTC)
End Az.
9 mins2025-02-05 20:04:22.615Z351.169° N2025-02-05 20:08:22.615Z41.397° NE28.61°2025-02-05 20:13:22.615Z112.468° ESE
8 mins2025-02-05 21:51:22.615Z304.894° NW2025-02-05 21:54:22.615Z259.735° W30.744°2025-02-05 21:59:22.615Z186.808° SSW
10 mins2025-02-06 11:07:22.615Z180.353° SSW2025-02-06 11:11:22.615Z122.917° SE37.549°2025-02-06 11:17:22.615Z39.714° NE
8 mins2025-02-06 12:54:22.615Z262.942° W2025-02-06 12:58:22.615Z318.519° NNW26.045°2025-02-06 13:02:22.615Z5.539° NNE
|